Terug naar catalogus

GORIZONT 19

ActiefCommunicatieGEO
NORAD 20263·PAYLOAD·🇷🇺 Russia

Gelanceerd Sep 28, 1989 vanaf Baikonur Cosmodrome

Loading…

TLE

VersSource: Space-Track

Epoch: Sep 13, 2026, 19:12 UTC

1 20263U 89081A   26256.80066150  .00000097  00000-0  00000-0 0  9992
2 20263  11.9821 332.9043 0006096 281.1493  75.3592  1.00213097 48220

Volg GORIZONT 19 in realtime met AllMySat

Download on the App Store